sat.trackr.live / text

‹ back to catalog

STARLINK-32886

NORAD 62807 · 2025-018B

PAYLOAD ACTIVE UNKNOWN

§ Identity

Operator
Country
US
Launch date
2025-01-24
Launch site
AFWTR
Launch vehicle
Mass (kg)
RCS (m²)

Purposes: comms

External: N2YO · Heavens-Above · Gunter

§ Orbital elements

Epoch: 2026-09-21T22:46:26.158368Z

Period
93.85 min
Inclination
53.1567°
Eccentricity
0.0001059
Mean motion
15.34393261 rev/d
Perigee alt
462.0 km
Apogee alt
463.4 km
Semi-major
6,840.9 km
B*
2.6217e-4
RAAN
114.6584°
Arg perigee
83.1952°
Mean anomaly
276.9171°
Rev number
9,327

§ Raw data

STARLINK-328861 62807U 25018B   26264.94891387  .00008490  00000+0  26217-3 0  99992 62807  53.1567 114.6584 0001059  83.1952 276.9171 15.34393261 93275

JSON: /api/v1/satellites/62807 · /tle

For live sub-satellite position, see the globe view (requires WebGL).

§ Visibility from observer

Set your observer location to see the next 7 days of passes ≥ 10°. The values pass through the URL so the page stays shareable.

No JS? Fill the form by hand. The geolocation button needs JavaScript.